Location: Recife
(8.0585°S, 34.8848°W)
Time: 12:39:53
(UTC-03:00)

Transit 4A - Pass Details

Date: 21 April 2026
Orbit: 861 x 980 km, 66.8° (Epoch: 12 May)

Event Time Altitude Azimuth Distance (km) Brightness Sun altitude
Rises 22:02:24 0° 15° (NNE) 3,649 - -70.9°
Reaches altitude 10° 22:06:06 10° 36° (NE) 2,693 - -71.8°
Maximum altitude 22:09:42 16° 72° (ENE) 2,281 - -72.7°
Drops below altitude 10° 22:13:17 10° 107° (ESE) 2,664 - -73.5°
Sets 22:16:52 0° 128° (SE) 3,589 - -74.4°
